Location: Unspecified
(30.8073°N, 0.0000°E)
Time: 00:58:20
(UTC+00:00)

ITAMSAT 1 - Visible Passes

Search period start: 21 August 2019 00:00
Search period end: 31 August 2019 00:00
Orbit: 784 x 797 km, 98.9° (Epoch: 19 August)

Date Brightness Start Highest point End Pass type
(mag) Time Alt. Az. Time Alt. Az. Time Alt. Az.
21 Aug 9.8 04:23:02 10° NE 04:27:21 26° E 04:31:38 10° SSE visible
22 Aug 10.5 03:55:32 10° ENE 03:57:44 13° E 03:59:54 10° ESE visible
23 Aug 8.0 05:02:53 10° NNE 05:08:03 72° ESE 05:13:11 10° S visible
24 Aug 9.4 04:33:53 10° NE 04:38:34 34° E 04:43:13 10° SSE visible
25 Aug 10.4 04:05:43 10° NE 04:08:59 17° E 04:12:14 10° SE visible
27 Aug 8.9 04:44:50 10° NNE 04:49:46 44° E 04:54:41 10° S visible
28 Aug 10.1 04:16:17 10° NE 04:20:13 22° E 04:24:09 10° SSE visible
30 Aug 8.4 04:55:52 10° NNE 05:00:58 58° ESE 05:06:02 10° S visible
